Location: Campestrin
(46.4667°N, 11.7167°E)
Time: 10:44:18
(UTC+00:00)

Cosmos 1190 Rocket - Pass Details

Date: 18 April 2021
Orbit: 757 x 779 km, 74.1° (Epoch: 06 May)

Event Time Altitude Azimuth Distance (km) Brightness Sun altitude
Exits shadow 20:07:39 37° 137° (SE) 1,170 4.4 -19.2°
Maximum altitude 20:08:48 43° 104° (ESE) 1,068 4.3 -19.3°
Drops below altitude 10° 20:13:43 10° 34° (NE) 2,305 6.6 -19.9°
Sets 20:16:10 0° 28° (NNE) 3,232 7.4 -20.2°
